Regional Weather Roundup
Issued by NWS

Home | Current Version | Previous Version | Text Only | Print | Product List | Glossary On
Versions: 1 2 3 4 5 6 7 8 9 10 11 12 13 14 15 16 17 18 19 20 21 22 23 24 25 26 27 28 29 30 31 32 33 34 35 36 37 38 39 40 41 42 43 44 45 46 47 48 49 50
000
ASUS43 KLMK 281210
RWRKY
KENTUCKY REGIONAL WEATHER ROUNDUP
NATIONAL WEATHER SERVICE LOUISVILLE KY
800 AM EDT SUN AUG 28 2016

NOTE "FAIR" INDICATES FEW OR NO CLOUDS BELOW 12,000 FEET
WITH NO SIGNIFICANT WEATHER AND/OR OBSTRUCTIONS TO VISIBILITY.

KYZ001>023-026-027-061>063-070>075-281300-
WESTERN AND SOUTH CENTRAL KENTUCKY

CITY           SKY/WX    TMP DP  RH WIND       PRES   REMARKS
PADUCAH        CLEAR     72  71  97 CALM      30.13R
HENDERSON      CLOUDY    73  70  88 CALM      30.14R VSB 3/4
OWENSBORO      CLEAR     76  76 100 E5        30.15R FOG
HOPKINSVILLE   CLEAR     73  70  91 CALM      30.14R
BOWLING GREEN  CLEAR     73  70  90 CALM      30.16R
GLASGOW        CLEAR     69  69 100 CALM      30.17R
$$

KYZ024-025-028>034-038-045-046-053-281300-
NORTH CENTRAL KENTUCKY

CITY           SKY/WX    TMP DP  RH WIND       PRES   REMARKS
LOUISVILLE/SDF PTCLDY    76  71  85 CALM      30.16R
LOUISVILLE/LOU CLEAR     76  72  87 CALM      30.17R
FORT KNOX      CLEAR     71  70  97 E2        30.16R
$$

KYZ035>037-039>044-047>052-055>060-089>105-281300-
NORTHEAST KENTUCKY

CITY           SKY/WX    TMP DP  RH WIND       PRES   REMARKS
LEXINGTON      CLEAR     72  69  90 CALM      30.19R
COVINGTON      PTCLDY    73  73 100 CALM      30.19R FOG
FRANKFORT      CLEAR     74  70  87 SE3       30.17R
$$

KYZ054-064>069-076>088-106>120-281300-
SOUTHEAST KENTUCKY

CITY           SKY/WX    TMP DP  RH WIND       PRES   REMARKS
JACKSON        SUNNY     73  69  87 SE3       30.21R
LONDON         SUNNY     71  67  87 CALM      30.21R
SOMERSET       CLEAR     70  68  94 CALM      30.21R
MIDDLESBORO    FOG       67  67 100 CALM      30.24R VSB 1/4
MONTICELLO     MOSUNNY  N/A N/A N/A MISG      30.21R
$$




USA.gov is the U.S. government's official web portal to all federal, state and local government web resources and services.